Today's  Data File

7/20/19
Time         Wind Dir   Wind Spd  Wind Gust   Humidity    Temp In       Temp  Raw Barom   Tot Rain Wind Chill Heat Index  Dew Point   Barom SL  Press Alt  DailyRain   HourRain   24HrRain   RainRate
                            mph        mph          %         F         F         in         in         F         F         F         in         ft         in         in         in      in/hr
12:00am           165          0          0         69       74.8       85.7      29.77      20.66       85.7       93.9       74.4      29.88        142       0.00       0.00       0.00      0.000
12:01am           165          0          0         69       74.8       85.7      29.77      20.66       85.7       93.9       74.4      29.88        142       0.00       0.00       0.00      0.000
12:02am           165          0          0         69       74.8       85.7      29.77      20.66       85.7       93.9       74.4      29.88        142       0.00       0.00       0.00      0.000
12:03am           165          0          0         69       74.8       85.7      29.77      20.66       85.7       93.9       74.4      29.88        143       0.00       0.00       0.00      0.000
12:04am           165          0          0         69       74.8       85.7      29.77      20.66       85.7       93.9       74.4      29.88        141       0.00       0.00       0.00      0.000
12:05am           165          0          0         69       74.8       85.7      29.77      20.66       85.7       93.9       74.4      29.88        141       0.00       0.00       0.00      0.000
12:06am           165          0          0         69       74.8       85.7      29.77      20.66       85.7       93.9       74.4      29.88        141       0.00       0.00       0.00      0.000
12:07am           165          0          0         69       74.8       85.7      29.77      20.66       85.7       93.9       74.4      29.88        136       0.00       0.00       0.00      0.000
12:08am           165          0          0         69       74.8       85.7      29.77      20.66       85.7       93.9       74.4      29.88        139       0.00       0.00       0.00      0.000
12:09am           165          0          0         69       74.8       85.6      29.77      20.66       85.6       93.7       74.3      29.88        137       0.00       0.00       0.00      0.000
12:10am           165          0          0         69       74.8       85.6      29.77      20.66       85.6       93.7       74.3      29.88        138       0.00       0.00       0.00      0.000
12:11am           165          0          0         69       74.8       85.6      29.77      20.66       85.6       93.7       74.3      29.88        139       0.00       0.00       0.00      0.000
12:12am           165          0          0         69       74.8       85.6      29.77      20.66       85.6       93.7       74.3      29.88        139       0.00       0.00       0.00      0.000
12:13am           165          0          0         69       74.8       85.6      29.77      20.66       85.6       93.7       74.3      29.88        140       0.00       0.00       0.00      0.000
12:14am           165          0          0         69       74.8       85.5      29.77      20.66       85.5       93.5       74.2      29.88        141       0.00       0.00       0.00      0.000
12:15am           165          0          0         69       74.8       85.5      29.77      20.66       85.5       93.5       74.2      29.88        141       0.00       0.00       0.00      0.000
12:16am           165          0          0         69       74.8       85.5      29.77      20.66       85.5       93.5       74.2      29.88        141       0.00       0.00       0.00      0.000
12:17am           165          0          0         70       74.8       85.4      29.77      20.66       85.4       93.6       74.5      29.88        140       0.00       0.00       0.00      0.000
12:18am           165          0          0         70       74.8       85.4      29.77      20.66       85.4       93.6       74.5      29.88        141       0.00       0.00       0.00      0.000
12:19am           165          0          0         70       74.8       85.4      29.77      20.66       85.4       93.6       74.5      29.88        140       0.00       0.00       0.00      0.000
12:20am           165          0          0         70       74.8       85.3      29.77      20.66       85.3       93.4       74.4      29.88        139       0.00       0.00       0.00      0.000
12:21am           165          0          0         70       74.8       85.3      29.77      20.66       85.3       93.4       74.4      29.88        140       0.00       0.00       0.00      0.000
12:22am           165          0          0         70       74.9       85.2      29.77      20.66       85.2       93.2       74.3      29.88        141       0.00       0.00       0.00      0.000
12:23am           165          0          0         70       74.9       85.2      29.77      20.66       85.2       93.2       74.3      29.88        141       0.00       0.00       0.00      0.000
12:24am           165          0          0         70       74.8       85.1      29.77      20.66       85.1       92.9       74.2      29.88        141       0.00       0.00       0.00      0.000
12:25am           165          0          0         70       74.9       85.1      29.77      20.66       85.1       92.9       74.2      29.88        141       0.00       0.00       0.00      0.000
12:26am           165          0          0         70       74.9       85.1      29.77      20.66       85.1       92.9       74.2      29.88        141       0.00       0.00       0.00      0.000
12:27am           165          0          0         70       74.9       85.0      29.77      20.66       85.0       92.7       74.1      29.88        140       0.00       0.00       0.00      0.000
12:28am           165          0          0         70       74.9       85.0      29.77      20.66       85.0       92.7       74.1      29.88        141       0.00       0.00       0.00      0.000
12:29am           165          0          0         70       74.9       85.0      29.77      20.66       85.0       92.7       74.1      29.88        141       0.00       0.00       0.00      0.000
12:30am           165          0          0         70       74.9       84.9      29.77      20.66       84.9       92.5       74.0      29.88        140       0.00       0.00       0.00      0.000
12:31am           165          0          0         70       74.9       84.9      29.77      20.66       84.9       92.5       74.0      29.88        141       0.00       0.00       0.00      0.000
12:32am           165          0          0         70       74.9       84.8      29.77      20.66       84.8       92.2       73.9      29.88        141       0.00       0.00       0.00      0.000
12:33am           165          0          0         70       74.9       84.8      29.77      20.66       84.8       92.2       73.9      29.88        141       0.00       0.00       0.00      0.000
12:34am           165          0          0         70       74.9       84.8      29.77      20.66       84.8       92.2       73.9      29.88        141       0.00       0.00       0.00      0.000
12:35am           165          0          0         70       74.9       84.7      29.77      20.66       84.7       92.0       73.8      29.88        143       0.00       0.00       0.00      0.000
12:36am           165          0          0         71       74.9       84.7      29.77      20.66       84.7       92.4       74.3      29.88        142       0.00       0.00       0.00      0.000
12:37am           165          0          0         71       74.9       84.6      29.77      20.66       84.6       92.2       74.2      29.88        141       0.00       0.00       0.00      0.000
12:38am           165          0          0         71       74.9       84.6      29.77      20.66       84.6       92.2       74.2      29.88        142       0.00       0.00       0.00      0.000
12:39am           165          0          0         71       74.9       84.6      29.77      20.66       84.6       92.2       74.2      29.88        142       0.00       0.00       0.00      0.000
12:41am           165          0          0         71       74.9       84.5      29.77      20.66       84.5       91.9       74.1      29.88        141       0.00       0.00       0.00      0.000
12:42am           165          0          0         71       74.9       84.4      29.77      20.66       84.4       91.7       74.0      29.88        141       0.00       0.00       0.00      0.000
12:43am           165          0          0         71       74.9       84.4      29.77      20.66       84.4       91.7       74.0      29.88        141       0.00       0.00       0.00      0.000
12:44am           165          0          0         71       74.9       84.3      29.77      20.66       84.3       91.5       73.9      29.88        141       0.00       0.00       0.00      0.000
12:45am           165          0          0         71       74.9       84.3      29.77      20.66       84.3       91.5       73.9      29.88        141       0.00       0.00       0.00      0.000
12:46am           165          0          0         72       74.9       84.3      29.76      20.66       84.3       91.8       74.3      29.87        144       0.00       0.00       0.00      0.000
12:47am           165          0          0         72       74.9       84.2      29.77      20.66       84.2       91.6       74.2      29.88        143       0.00       0.00       0.00      0.000
12:48am           165          0          0         72       74.9       84.2      29.76      20.66       84.2       91.6       74.2      29.87        144       0.00       0.00       0.00      0.000
12:49am           165          0          0         72       74.9       84.1      29.76      20.66       84.1       91.4       74.1      29.87        144       0.00       0.00       0.00      0.000
12:50am           165          0          0         72       74.9       84.1      29.77      20.66       84.1       91.4       74.1      29.88        143       0.00       0.00       0.00      0.000
12:51am           165          0          0         72       74.9       84.0      29.77      20.66       84.0       91.1       74.0      29.88        143       0.00       0.00       0.00      0.000
12:52am           165          0          0         72       74.9       84.0      29.77      20.66       84.0       91.1       74.0      29.88        141       0.00       0.00       0.00      0.000
12:53am           165          0          0         72       74.9       84.0      29.77      20.66       84.0       91.1       74.0      29.88        141       0.00       0.00       0.00      0.000
12:54am           165          0          0         72       74.9       83.9      29.77      20.66       83.9       90.9       73.9      29.88        142       0.00       0.00       0.00      0.000
12:55am           165          0          0         72       74.9       83.9      29.77      20.66       83.9       90.9       73.9      29.88        142       0.00       0.00       0.00      0.000
12:56am           165          0          0         73       74.9       83.8      29.76      20.66       83.8       91.0       74.2      29.87        144       0.00       0.00       0.00      0.000
12:57am           165          0          0         72       74.9       83.8      29.76      20.66       83.8       90.7       73.8      29.87        145       0.00       0.00       0.00      0.000
12:58am           165          0          0         72       74.9       83.7      29.76      20.66       83.7       90.5       73.7      29.87        146       0.00       0.00       0.00      0.000
12:59am           165          0          0         73       74.9       83.7      29.76      20.66       83.7       90.8       74.1      29.87        147       0.00       0.00       0.00      0.000
1:00am            165          0          0         73       74.9       83.7      29.76      20.66       83.7       90.8       74.1      29.87        147       0.00       0.00       0.00      0.000
1:01am            165          0          0         73       74.9       83.6      29.76      20.66       83.6       90.5       74.0      29.87        146       0.00       0.00       0.00      0.000
1:02am            165          0          0         73       74.9       83.6      29.76      20.66       83.6       90.5       74.0      29.87        147       0.00       0.00       0.00      0.000
1:03am            165          0          0         73       74.9       83.5      29.76      20.66       83.5       90.3       73.9      29.87        144       0.00       0.00       0.00      0.000
1:04am            165          0          0         73       74.9       83.5      29.76      20.66       83.5       90.3       73.9      29.87        146       0.00       0.00       0.00      0.000
1:05am            165          0          0         74       74.9       83.5      29.76      20.66       83.5       90.6       74.3      29.87        146       0.00       0.00       0.00      0.000
1:06am            165          0          0         74       74.8       83.4      29.76      20.66       83.4       90.4       74.2      29.87        145       0.00       0.00       0.00      0.000
1:07am            165          0          0         74       74.9       83.4      29.76      20.66       83.4       90.4       74.2      29.87        145       0.00       0.00       0.00      0.000
1:08am            165          0          0         74       74.9       83.4      29.76      20.66       83.4       90.4       74.2      29.87        145       0.00       0.00       0.00      0.000
1:09am            165          0          0         74       74.9       83.3      29.76      20.66       83.3       90.2       74.2      29.87        144       0.00       0.00       0.00      0.000
1:10am            165          0          0         74       74.9       83.3      29.76      20.66       83.3       90.2       74.2      29.87        144       0.00       0.00       0.00      0.000
1:11am            165          0          0         74       74.9       83.2      29.77      20.66       83.2       89.9       74.1      29.88        143       0.00       0.00       0.00      0.000
1:12am            165          0          0         74       74.9       83.2      29.77      20.66       83.2       89.9       74.1      29.88        143       0.00       0.00       0.00      0.000
1:13am            165          0          0         74       74.9       83.2      29.76      20.66       83.2       89.9       74.1      29.87        144       0.00       0.00       0.00      0.000
1:14am            165          0          0         74       74.9       83.2      29.76      20.66       83.2       89.9       74.1      29.87        144       0.00       0.00       0.00      0.000
1:15am            165          0          0         74       74.9       83.1      29.77      20.66       83.1       89.7       74.0      29.88        143       0.00       0.00       0.00      0.000
1:16am            165          0          0         75       74.9       83.1      29.77      20.66       83.1       90.0       74.4      29.88        143       0.00       0.00       0.00      0.000
1:17am            165          0          0         75       74.9       83.0      29.76      20.66       83.0       89.8       74.3      29.87        144       0.00       0.00       0.00      0.000
1:18am            165          0          0         75       74.9       83.0      29.77      20.66       83.0       89.8       74.3      29.88        143       0.00       0.00       0.00      0.000
1:19am            165          0          0         75       74.9       83.0      29.76      20.66       83.0       89.8       74.3      29.87        145       0.00       0.00       0.00      0.000
1:20am            165          0          0         75       75.0       83.0      29.76      20.66       83.0       89.8       74.3      29.87        145       0.00       0.00       0.00      0.000
1:21am            165          0          0         76       75.0       82.9      29.76      20.66       82.9       89.8       74.6      29.87        145       0.00       0.00       0.00      0.000
1:22am            165          0          0         76       75.0       82.9      29.76      20.66       82.9       89.8       74.6      29.87        144       0.00       0.00       0.00      0.000
1:23am            165          0          0         76       75.0       82.9      29.77      20.66       82.9       89.8       74.6      29.88        142       0.00       0.00       0.00      0.000
1:24am            165          0          0         76       75.0       82.8      29.77      20.66       82.8       89.6       74.5      29.88        143       0.00       0.00       0.00      0.000
1:25am            165          0          0         76       75.0       82.8      29.77      20.66       82.8       89.6       74.5      29.88        142       0.00       0.00       0.00      0.000
1:26am            165          0          0         77       74.9       82.8      29.77      20.66       82.8       89.9       74.9      29.88        142       0.00       0.00       0.00      0.000
1:27am            165          0          0         76       75.0       82.7      29.77      20.66       82.7       89.4       74.4      29.88        142       0.00       0.00       0.00      0.000
1:28am            165          0          0         76       74.9       82.7      29.77      20.66       82.7       89.4       74.4      29.88        143       0.00       0.00       0.00      0.000
1:29am            165          0          0         76       74.9       82.7      29.76      20.66       82.7       89.4       74.4      29.87        144       0.00       0.00       0.00      0.000
1:30am            165          0          0         76       75.0       82.6      29.77      20.66       82.6       89.2       74.3      29.88        143       0.00       0.00       0.00      0.000
1:31am            165          0          0         76       75.0       82.6      29.76      20.66       82.6       89.2       74.3      29.87        144       0.00       0.00       0.00      0.000
1:31am            165          0          0         76       75.0       82.5      29.77      20.66       82.5       88.9       74.2      29.88        143       0.00       0.00       0.00      0.000
1:33am            165          0          0         76       75.0       82.5      29.76      20.66       82.5       88.9       74.2      29.87        144       0.00       0.00       0.00      0.000
1:34am            165          0          0         76       75.0       82.5      29.77      20.66       82.5       88.9       74.2      29.88        142       0.00       0.00       0.00      0.000
1:35am            165          0          0         76       75.0       82.5      29.77      20.66       82.5       88.9       74.2      29.88        142       0.00       0.00       0.00      0.000
1:36am            165          0          0         76       75.0       82.4      29.77      20.66       82.4       88.7       74.1      29.88        141       0.00       0.00       0.00      0.000
1:37am            165          0          0         76       75.0       82.4      29.77      20.66       82.4       88.7       74.1      29.88        142       0.00       0.00       0.00      0.000
1:38am            165          0          0         77       75.0       82.4      29.77      20.66       82.4       89.0       74.5      29.88        141       0.00       0.00       0.00      0.000
1:39am            165          0          0         77       75.0       82.3      29.77      20.66       82.3       88.7       74.4      29.88        140       0.00       0.00       0.00      0.000
1:40am            165          0          0         76       75.0       82.3      29.77      20.66       82.3       88.5       74.0      29.88        140       0.00       0.00       0.00      0.000
1:41am            165          0          0         76       75.0       82.3      29.77      20.66       82.3       88.5       74.0      29.88        138       0.00       0.00       0.00      0.000
1:42am            165          0          0         77       75.0       82.3      29.77      20.66       82.3       88.7       74.4      29.88        138       0.00       0.00       0.00      0.000
1:43am            165          0          0         77       75.0       82.3      29.77      20.66       82.3       88.7       74.4      29.88        135       0.00       0.00       0.00      0.000
1:44am            165          0          0         77       75.0       82.2      29.77      20.66       82.2       88.5       74.3      29.88        139       0.00       0.00       0.00      0.000
1:45am            165          0          0         77       75.0       82.2      29.77      20.66       82.2       88.5       74.3      29.88        138       0.00       0.00       0.00      0.000
1:46am            165          0          0         77       75.0       82.1      29.77      20.66       82.1       88.3       74.2      29.88        138       0.00       0.00       0.00      0.000
1:47am            165          0          0         77       75.0       82.1      29.77      20.66       82.1       88.3       74.2      29.88        136       0.00       0.00       0.00      0.000
1:48am            165          0          0         77       75.0       82.1      29.77      20.66       82.1       88.3       74.2      29.88        138       0.00       0.00       0.00      0.000
1:49am            165          0          0         77       75.0       82.1      29.77      20.66       82.1       88.3       74.2      29.88        139       0.00       0.00       0.00      0.000
1:50am            165          0          0         77       75.0       82.0      29.77      20.66       82.0       88.0       74.1      29.88        139       0.00       0.00       0.00      0.000
1:51am            165          0          0         78       75.0       82.0      29.77      20.66       82.0       88.3       74.5      29.88        137       0.00       0.00       0.00      0.000
1:52am            165          0          0         78       75.0       82.0      29.77      20.66       82.0       88.3       74.5      29.88        137       0.00       0.00       0.00      0.000
1:53am            165          0          0         78       75.0       82.0      29.77      20.66       82.0       88.3       74.5      29.88        138       0.00       0.00       0.00      0.000
1:54am            165          0          0         78       75.0       81.9      29.77      20.66       81.9       88.1       74.4      29.88        138       0.00       0.00       0.00      0.000
1:55am            165          0          0         78       75.0       81.9      29.77      20.66       81.9       88.1       74.4      29.88        135       0.00       0.00       0.00      0.000
1:56am            165          0          0         79       75.0       81.8      29.77      20.66       81.8       88.1       74.7      29.88        139       0.00       0.00       0.00      0.000
1:57am            165          0          0         79       75.0       81.8      29.77      20.66       81.8       88.1       74.7      29.88        138       0.00       0.00       0.00      0.000
1:58am            165          0          0         79       75.0       81.8      29.77      20.66       81.8       88.1       74.7      29.88        138       0.00       0.00       0.00      0.000
1:59am            165          0          0         79       75.0       81.8      29.77      20.66       81.8       88.1       74.7      29.88        137       0.00       0.00       0.00      0.000
2:00am            165          0          0         79       75.0       81.8      29.77      20.66       81.8       88.1       74.7      29.88        137       0.00       0.00       0.00      0.000
2:01am            165          0          0         79       75.0       81.7      29.77      20.66       81.7       87.8       74.6      29.88        138       0.00       0.00       0.00      0.000
2:02am            165          0          0         79       75.0       81.7      29.77      20.66       81.7       87.8       74.6      29.88        137       0.00       0.00       0.00      0.000
2:03am            165          0          0         79       75.0       81.7      29.77      20.66       81.7       87.8       74.6      29.88        137       0.00       0.00       0.00      0.000
2:04am            165          0          0         79       75.0       81.7      29.77      20.66       81.7       87.8       74.6      29.88        137       0.00       0.00       0.00      0.000
2:05am            165          0          0         79       75.0       81.6      29.77      20.66       81.6       87.6       74.5      29.88        137       0.00       0.00       0.00      0.000
2:06am            165          0          0         79       75.0       81.6      29.77      20.66       81.6       87.6       74.5      29.88        136       0.00       0.00       0.00      0.000
2:07am            165          0          0         79       75.1       81.6      29.77      20.66       81.6       87.6       74.5      29.88        137       0.00       0.00       0.00      0.000
2:08am            165          0          0         79       75.0       81.6      29.77      20.66       81.6       87.6       74.5      29.88        136       0.00       0.00       0.00      0.000
2:09am            165          0          0         79       75.0       81.5      29.77      20.66       81.5       87.4       74.4      29.88        136       0.00       0.00       0.00      0.000
2:10am            165          0          0         79       75.0       81.5      29.77      20.66       81.5       87.4       74.4      29.88        136       0.00       0.00       0.00      0.000
2:11am            165          0          0         79       75.0       81.5      29.77      20.66       81.5       87.4       74.4      29.88        135       0.00       0.00       0.00      0.000
2:12am            165          0          0         79       75.0       81.4      29.77      20.66       81.4       87.1       74.3      29.88        136       0.00       0.00       0.00      0.000
2:13am            165          0          0         79       75.1       81.4      29.77      20.66       81.4       87.1       74.3      29.88        136       0.00       0.00       0.00      0.000
2:14am            165          0          0         79       75.0       81.4      29.77      20.66       81.4       87.1       74.3      29.88        138       0.00       0.00       0.00      0.000
2:15am            165          0          0         79       75.0       81.4      29.77      20.66       81.4       87.1       74.3      29.88        138       0.00       0.00       0.00      0.000
2:16am            165          0          0         79       75.0       81.4      29.77      20.66       81.4       87.1       74.3      29.88        137       0.00       0.00       0.00      0.000
2:17am            165          0          0         80       75.0       81.4      29.77      20.66       81.4       87.4       74.6      29.88        138       0.00       0.00       0.00      0.000
2:18am            165          0          0         80       75.0       81.4      29.77      20.66       81.4       87.4       74.6      29.88        138       0.00       0.00       0.00      0.000
2:19am            165          0          0         80       75.0       81.3      29.77      20.66       81.3       87.1       74.5      29.88        137       0.00       0.00       0.00      0.000
2:20am            165          0          0         80       75.0       81.3      29.77      20.66       81.3       87.1       74.5      29.88        137       0.00       0.00       0.00      0.000
2:21am            165          0          0         80       75.1       81.3      29.77      20.66       81.3       87.1       74.5      29.88        136       0.00       0.00       0.00      0.000
2:22am            165          0          0         80       75.1       81.2      29.77      20.66       81.2       86.9       74.4      29.88        135       0.00       0.00       0.00      0.000
2:23am            165          0          0         80       75.0       81.2      29.77      20.66       81.2       86.9       74.4      29.88        135       0.00       0.00       0.00      0.000
2:24am            165          0          0         80       75.0       81.2      29.77      20.66       81.2       86.9       74.4      29.88        135       0.00       0.00       0.00      0.000
2:25am            165          0          0         80       75.0       81.2      29.77      20.66       81.2       86.9       74.4      29.88        136       0.00       0.00       0.00      0.000
2:26am            165          0          0         80       75.0       81.2      29.77      20.66       81.2       86.9       74.4      29.88        136       0.00       0.00       0.00      0.000
2:27am            165          0          0         80       75.0       81.1      29.77      20.66       81.1       86.7       74.3      29.88        137       0.00       0.00       0.00      0.000
2:28am            165          0          0         80       75.0       81.1      29.77      20.66       81.1       86.7       74.3      29.88        138       0.00       0.00       0.00      0.000
2:29am            165          0          0         80       75.1       81.1      29.78      20.66       81.1       86.7       74.3      29.89        134       0.00       0.00       0.00      0.000
2:30am            165          0          0         80       75.0       81.0      29.77      20.66       81.0       86.4       74.3      29.88        137       0.00       0.00       0.00      0.000
2:31am            165          0          0         80       75.0       81.0      29.77      20.66       81.0       86.4       74.3      29.88        136       0.00       0.00       0.00      0.000
2:32am            165          0          0         80       75.0       81.0      29.77      20.66       81.0       86.4       74.3      29.88        136       0.00       0.00       0.00      0.000
2:33am            165          0          0         80       75.0       81.0      29.77      20.66       81.0       86.4       74.3      29.88        137       0.00       0.00       0.00      0.000
2:34am            165          0          0         80       75.0       81.0      29.78      20.66       81.0       86.4       74.3      29.89        134       0.00       0.00       0.00      0.000
2:35am            165          0          0         80       75.1       80.9      29.77      20.66       80.9       86.2       74.2      29.88        135       0.00       0.00       0.00      0.000
2:36am            165          0          0         80       75.1       80.9      29.77      20.66       80.9       86.2       74.2      29.88        136       0.00       0.00       0.00      0.000
2:37am            165          0          0         80       75.1       80.8      29.77      20.66       80.8       86.0       74.1      29.88        136       0.00       0.00       0.00      0.000
2:38am            165          0          0         80       75.1       80.8      29.77      20.66       80.8       86.0       74.1      29.88        136       0.00       0.00       0.00      0.000
2:39am            165          0          0         80       75.1       80.8      29.77      20.66       80.8       86.0       74.1      29.88        137       0.00       0.00       0.00      0.000
2:40am            165          0          0         80       75.1       80.8      29.77      20.66       80.8       86.0       74.1      29.88        136       0.00       0.00       0.00      0.000
2:41am            165          0          0         80       75.1       80.7      29.77      20.66       80.7       85.8       74.0      29.88        136       0.00       0.00       0.00      0.000
2:42am            165          0          0         80       75.1       80.7      29.77      20.66       80.7       85.8       74.0      29.88        136       0.00       0.00       0.00      0.000
2:43am            165          0          0         80       75.1       80.7      29.77      20.66       80.7       85.8       74.0      29.88        136       0.00       0.00       0.00      0.000
2:44am            165          0          0         80       75.1       80.7      29.77      20.66       80.7       85.8       74.0      29.88        136       0.00       0.00       0.00      0.000
2:45am            165          0          0         80       75.1       80.6      29.77      20.66       80.6       85.5       73.9      29.88        136       0.00       0.00       0.00      0.000
2:46am            165          0          0         80       75.1       80.6      29.77      20.66       80.6       85.5       73.9      29.88        136       0.00       0.00       0.00      0.000
2:47am            165          0          0         80       75.1       80.6      29.77      20.66       80.6       85.5       73.9      29.88        136       0.00       0.00       0.00      0.000
2:48am            165          0          0         80       75.1       80.5      29.77      20.66       80.5       85.3       73.8      29.88        137       0.00       0.00       0.00      0.000
2:49am            165          0          0         80       75.1       80.5      29.77      20.66       80.5       85.3       73.8      29.88        138       0.00       0.00       0.00      0.000
2:50am            165          0          0         80       75.1       80.5      29.77      20.66       80.5       85.3       73.8      29.88        139       0.00       0.00       0.00      0.000
2:51am            165          0          0         80       75.1       80.4      29.77      20.66       80.4       85.1       73.7      29.88        138       0.00       0.00       0.00      0.000
2:52am            165          0          0         80       75.1       80.4      29.77      20.66       80.4       85.1       73.7      29.88        138       0.00       0.00       0.00      0.000
2:53am            165          0          0         80       75.1       80.4      29.77      20.66       80.4       85.1       73.7      29.88        138       0.00       0.00       0.00      0.000
2:54am            165          0          0         80       75.1       80.3      29.77      20.66       80.3       84.9       73.6      29.88        137       0.00       0.00       0.00      0.000
2:55am            165          0          0         80       75.1       80.3      29.77      20.66       80.3       84.9       73.6      29.88        138       0.00       0.00       0.00      0.000
2:56am            165          0          0         81       75.1       80.3      29.77      20.66       80.3       85.0       73.9      29.88        136       0.00       0.00       0.00      0.000
2:57am            165          0          0         81       75.1       80.2      29.77      20.66       80.2       84.8       73.8      29.88        137       0.00       0.00       0.00      0.000
2:58am            165          0          0         81       75.1       80.2      29.77      20.66       80.2       84.8       73.8      29.88        139       0.00       0.00       0.00      0.000
2:59am            165          0          0         81       75.1       80.2      29.77      20.66       80.2       84.8       73.8      29.88        138       0.00       0.00       0.00      0.000
3:00am            165          0          0         81       75.1       80.2      29.77      20.66       80.2       84.8       73.8      29.88        136       0.00       0.00       0.00      0.000
3:01am            165          0          0         81       75.1       80.2      29.77      20.66       80.2       84.8       73.8      29.88        137       0.00       0.00       0.00      0.000
3:02am            165          0          0         81       75.1       80.2      29.77      20.66       80.2       84.8       73.8      29.88        135       0.00       0.00       0.00      0.000
3:03am            165          0          0         81       75.1       80.1      29.77      20.66       80.1       84.6       73.7      29.88        135       0.00       0.00       0.00      0.000
3:04am            165          0          0         81       75.1       80.1      29.77      20.66       80.1       84.6       73.7      29.88        135       0.00       0.00       0.00      0.000
3:05am            165          0          0         81       75.1       80.0      29.77      20.66       80.0       84.4       73.6      29.88        136       0.00       0.00       0.00      0.000
3:06am            165          0          0         81       75.1       80.0      29.78      20.66       80.0       84.4       73.6      29.89        134       0.00       0.00       0.00      0.000
3:07am            165          0          0         81       75.1       80.0      29.77      20.66       80.0       84.4       73.6      29.88        137       0.00       0.00       0.00      0.000
3:08am            165          0          0         81       75.0       80.0      29.77      20.66       80.0       84.4       73.6      29.88        136       0.00       0.00       0.00      0.000
3:09am            165          0          0         81       75.1       80.0      29.77      20.66       80.0       84.4       73.6      29.88        138       0.00       0.00       0.00      0.000
3:10am            165          0          0         81       75.1       79.9      29.77      20.66       79.9       84.3       73.6      29.88        137       0.00       0.00       0.00      0.000
3:11am            165          0          0         81       75.1       79.9      29.77      20.66       79.9       84.3       73.6      29.88        138       0.00       0.00       0.00      0.000
3:12am            165          0          0         81       75.0       79.9      29.77      20.66       79.9       84.3       73.6      29.88        139       0.00       0.00       0.00      0.000
3:13am            165          0          0         81       75.0       79.8      29.77      20.66       79.8       84.2       73.5      29.88        139       0.00       0.00       0.00      0.000
3:14am            165          0          0         81       75.0       79.8      29.77      20.66       79.8       84.2       73.5      29.88        139       0.00       0.00       0.00      0.000
3:15am            165          0          0         82       75.1       79.8      29.77      20.66       79.8       84.3       73.8      29.88        139       0.00       0.00       0.00      0.000
3:16am            165          0          0         82       75.0       79.8      29.77      20.66       79.8       84.3       73.8      29.88        139       0.00       0.00       0.00      0.000
3:17am            165          0          0         82       75.1       79.7      29.77      20.66       79.7       84.2       73.7      29.88        140       0.00       0.00       0.00      0.000
3:18am            165          0          0         82       75.1       79.7      29.77      20.66       79.7       84.2       73.7      29.88        139       0.00       0.00       0.00      0.000
3:19am            165          0          0         82       75.0       79.7      29.77      20.66       79.7       84.2       73.7      29.88        139       0.00       0.00       0.00      0.000
3:20am            165          0          0         82       75.0       79.7      29.77      20.66       79.7       84.2       73.7      29.88        139       0.00       0.00       0.00      0.000
3:21am            165          0          0         82       75.1       79.7      29.77      20.66       79.7       84.2       73.7      29.88        137       0.00       0.00       0.00      0.000
3:22am            165          0          0         82       75.1       79.6      29.77      20.66       79.6       84.1       73.6      29.88        137       0.00       0.00       0.00      0.000
3:23am            165          0          0         82       75.1       79.6      29.77      20.66       79.6       84.1       73.6      29.88        138       0.00       0.00       0.00      0.000
3:24am            165          0          0         82       75.1       79.6      29.77      20.66       79.6       84.1       73.6      29.88        138       0.00       0.00       0.00      0.000
3:25am            165          0          0         82       75.1       79.6      29.77      20.66       79.6       84.1       73.6      29.88        135       0.00       0.00       0.00      0.000
3:26am            165          0          0         82       75.1       79.5      29.77      20.66       79.5       84.0       73.5      29.88        136       0.00       0.00       0.00      0.000
3:27am            165          0          0         82       75.1       79.5      29.77      20.66       79.5       84.0       73.5      29.88        135       0.00       0.00       0.00      0.000
3:28am            165          0          0         82       75.1       79.5      29.77      20.66       79.5       84.0       73.5      29.88        136       0.00       0.00       0.00      0.000
3:29am            165          0          0         82       75.1       79.5      29.78      20.66       79.5       84.0       73.5      29.89        133       0.00       0.00       0.00      0.000
3:30am            165          0          0         82       75.1       79.5      29.78      20.66       79.5       84.0       73.5      29.89        134       0.00       0.00       0.00      0.000
3:31am            165          0          0         82       75.1       79.4      29.78      20.66       79.4       83.9       73.4      29.89        132       0.00       0.00       0.00      0.000
3:32am            165          0          0         82       75.1       79.4      29.78      20.66       79.4       83.9       73.4      29.89        134       0.00       0.00       0.00      0.000
3:33am            165          0          0         82       75.1       79.4      29.78      20.66       79.4       83.9       73.4      29.89        134       0.00       0.00       0.00      0.000
3:34am            165          0          0         82       75.1       79.3      29.78      20.66       79.3       83.8       73.3      29.89        134       0.00       0.00       0.00      0.000
3:35am            165          0          0         82       75.1       79.3      29.78      20.66       79.3       83.8       73.3      29.89        134       0.00       0.00       0.00      0.000
3:36am            165          0          0         82       75.1       79.3      29.78      20.66       79.3       83.8       73.3      29.89        133       0.00       0.00       0.00      0.000
3:37am            165          0          0         82       75.1       79.3      29.78      20.66       79.3       83.8       73.3      29.89        133       0.00       0.00       0.00      0.000
3:38am            165          0          0         82       75.1       79.3      29.78      20.66       79.3       83.8       73.3      29.89        132       0.00       0.00       0.00      0.000
3:39am            165          0          0         82       75.1       79.2      29.78      20.66       79.2       83.7       73.2      29.89        132       0.00       0.00       0.00      0.000
3:40am            165          0          0         82       75.1       79.2      29.78      20.66       79.2       83.7       73.2      29.89        130       0.00       0.00       0.00      0.000
3:41am            165          0          0         82       75.1       79.2      29.78      20.66       79.2       83.7       73.2      29.89        131       0.00       0.00       0.00      0.000
3:42am            165          0          0         82       75.1       79.2      29.78      20.66       79.2       83.7       73.2      29.89        130       0.00       0.00       0.00      0.000
3:43am            165          0          0         82       75.1       79.2      29.78      20.66       79.2       83.7       73.2      29.89        129       0.00       0.00       0.00      0.000
3:44am            165          0          0         82       75.1       79.1      29.78      20.66       79.1       83.6       73.1      29.89        131       0.00       0.00       0.00      0.000
3:45am            165          0          0         82       75.1       79.1      29.78      20.66       79.1       83.6       73.1      29.89        131       0.00       0.00       0.00      0.000
3:46am            165          0          0         82       75.1       79.1      29.78      20.66       79.1       83.6       73.1      29.89        132       0.00       0.00       0.00      0.000
3:47am            165          0          0         82       75.1       79.1      29.78      20.66       79.1       83.6       73.1      29.89        134       0.00       0.00       0.00      0.000
3:48am            165          0          0         82       75.1       79.1      29.78      20.66       79.1       83.6       73.1      29.89        133       0.00       0.00       0.00      0.000
3:49am            165          0          0         83       75.1       79.1      29.77      20.66       79.1       83.7       73.5      29.88        135       0.00       0.00       0.00      0.000
3:50am            165          0          0         83       75.1       79.0      29.77      20.66       79.0       83.6       73.4      29.88        135       0.00       0.00       0.00      0.000
3:51am            165          0          0         83       75.1       79.1      29.78      20.66       79.1       83.7       73.5      29.89        133       0.00       0.00       0.00      0.000
3:52am            165          0          0         83       75.1       79.0      29.77      20.66       79.0       83.6       73.4      29.88        135       0.00       0.00       0.00      0.000
3:53am            165          0          0         83       75.1       79.0      29.77      20.66       79.0       83.6       73.4      29.88        135       0.00       0.00       0.00      0.000
3:54am            165          0          0         83       75.1       79.0      29.77      20.66       79.0       83.6       73.4      29.88        135       0.00       0.00       0.00      0.000
3:55am            165          0          0         83       75.1       79.0      29.77      20.66       79.0       83.6       73.4      29.88        135       0.00       0.00       0.00      0.000
3:56am            165          0          0         83       75.1       79.0      29.78      20.66       79.0       83.6       73.4      29.89        133       0.00       0.00       0.00      0.000
3:57am            165          0          0         83       75.1       79.0      29.77      20.66       79.0       83.6       73.4      29.88        135       0.00       0.00       0.00      0.000
3:58am            165          0          0         83       75.1       79.0      29.77      20.66       79.0       83.6       73.4      29.88        136       0.00       0.00       0.00      0.000
3:59am            165          0          0         84       75.1       79.0      29.77      20.66       79.0       83.8       73.8      29.88        136       0.00       0.00       0.00      0.000
4:00am            165          0          0         84       75.1       78.9      29.77      20.66       78.9       83.7       73.7      29.88        136       0.00       0.00       0.00      0.000
4:01am            165          0          0         84       75.1       78.9      29.77      20.66       78.9       83.7       73.7      29.88        136       0.00       0.00       0.00      0.000
4:02am            165          0          0         84       75.1       78.9      29.77      20.66       78.9       83.7       73.7      29.88        136       0.00       0.00       0.00      0.000
4:03am            165          0          0         84       75.1       78.9      29.77      20.66       78.9       83.7       73.7      29.88        136       0.00       0.00       0.00      0.000
4:04am            165          0          0         84       75.1       78.9      29.77      20.66       78.9       83.7       73.7      29.88        135       0.00       0.00       0.00      0.000
4:05am            165          0          0         84       75.1       78.9      29.77      20.66       78.9       83.7       73.7      29.88        138       0.00       0.00       0.00      0.000
4:06am            165          0          0         84       75.1       78.9      29.77      20.66       78.9       83.7       73.7      29.88        138       0.00       0.00       0.00      0.000
4:07am            165          0          0         84       75.1       78.9      29.78      20.66       78.9       83.7       73.7      29.89        132       0.00       0.00       0.00      0.000
4:08am            165          0          0         84       75.1       78.9      29.77      20.66       78.9       83.7       73.7      29.88        138       0.00       0.00       0.00      0.000
4:09am            165          0          0         84       75.1       78.9      29.77      20.66       78.9       83.7       73.7      29.88        138       0.00       0.00       0.00      0.000
4:10am            165          0          0         84       75.1       78.8      29.77      20.66       78.8       83.6       73.6      29.88        135       0.00       0.00       0.00      0.000
4:11am            165          0          0         84       75.1       78.8      29.78      20.66       78.8       83.6       73.6      29.89        133       0.00       0.00       0.00      0.000
4:12am            165          0          0         84       75.1       78.8      29.78      20.66       78.8       83.6       73.6      29.89        133       0.00       0.00       0.00      0.000
4:13am            165          0          0         84       75.1       78.8      29.78      20.66       78.8       83.6       73.6      29.89        132       0.00       0.00       0.00      0.000
4:14am            165          0          0         84       75.1       78.7      29.78      20.66       78.7       83.5       73.5      29.89        133       0.00       0.00       0.00      0.000
4:15am            165          0          0         84       75.1       78.7      29.78      20.66       78.7       83.5       73.5      29.89        133       0.00       0.00       0.00      0.000
4:16am            165          0          0         84       75.1       78.7      29.77      20.66       78.7       83.5       73.5      29.88        135       0.00       0.00       0.00      0.000
4:17am            165          0          0         84       75.1       78.7      29.78      20.66       78.7       83.5       73.5      29.89        133       0.00       0.00       0.00      0.000
4:18am            165          0          0         84       75.0       78.7      29.77      20.66       78.7       83.5       73.5      29.88        135       0.00       0.00       0.00      0.000
4:19am            165          0          0         85       75.0       78.7      29.78      20.66       78.7       83.6       73.8      29.89        133       0.00       0.00       0.00      0.000
4:20am            165          0          0         85       75.0       78.7      29.78      20.66       78.7       83.6       73.8      29.89        133       0.00       0.00       0.00      0.000
4:21am            165          0          0         85       75.0       78.7      29.78      20.66       78.7       83.6       73.8      29.89        133       0.00       0.00       0.00      0.000
4:22am            165          0          0         85       75.0       78.7      29.78      20.66       78.7       83.6       73.8      29.89        132       0.00       0.00       0.00      0.000
4:23am            165          0          0         85       75.0       78.6      29.78      20.66       78.6       83.5       73.7      29.89        131       0.00       0.00       0.00      0.000
4:24am            165          0          0         85       75.0       78.6      29.78      20.66       78.6       83.5       73.7      29.89        130       0.00       0.00       0.00      0.000
4:25am            165          0          0         85       75.0       78.6      29.78      20.66       78.6       83.5       73.7      29.89        130       0.00       0.00       0.00      0.000
4:26am            165          0          0         85       75.0       78.6      29.78      20.66       78.6       83.5       73.7      29.89        129       0.00       0.00       0.00      0.000
4:27am            165          0          0         85       75.0       78.6      29.78      20.66       78.6       83.5       73.7      29.89        130       0.00       0.00       0.00      0.000
4:28am            165          0          0         85       75.0       78.5      29.78      20.66       78.5       83.4       73.6      29.89        129       0.00       0.00       0.00      0.000
4:29am            165          0          0         85       74.9       78.6      29.78      20.66       78.6       83.5       73.7      29.89        130       0.00       0.00       0.00      0.000
4:30am            165          0          0         85       74.9       78.5      29.78      20.66       78.5       83.4       73.6      29.89        130       0.00       0.00       0.00      0.000
4:31am            165          0          0         85       74.9       78.5      29.78      20.66       78.5       83.4       73.6      29.89        129       0.00       0.00       0.00      0.000
4:32am            165          0          0         85       74.9       78.5      29.78      20.66       78.5       83.4       73.6      29.89        129       0.00       0.00       0.00      0.000
4:33am            165          0          0         85       74.9       78.5      29.78      20.66       78.5       83.4       73.6      29.89        129       0.00       0.00       0.00      0.000
4:34am            165          0          0         85       74.9       78.5      29.78      20.66       78.5       83.4       73.6      29.89        128       0.00       0.00       0.00      0.000
4:35am            165          0          0         85       74.9       78.5      29.78      20.66       78.5       83.4       73.6      29.89        127       0.00       0.00       0.00      0.000
4:36am            165          0          0         85       74.9       78.5      29.78      20.66       78.5       83.4       73.6      29.89        126       0.00       0.00       0.00      0.000
4:37am            165          0          0         85       74.9       78.5      29.78      20.66       78.5       83.4       73.6      29.89        126       0.00       0.00       0.00      0.000
4:38am            165          0          0         85       74.9       78.5      29.79      20.66       78.5       83.4       73.6      29.90        125       0.00       0.00       0.00      0.000
4:39am            165          0          0         85       74.9       78.4      29.79      20.66       78.4       83.3       73.5      29.90        125       0.00       0.00       0.00      0.000
4:40am            165          0          0         85       74.9       78.4      29.79      20.66       78.4       83.3       73.5      29.90        125       0.00       0.00       0.00      0.000
4:41am            165          0          0         85       74.9       78.5      29.78      20.66       78.5       83.4       73.6      29.89        126       0.00       0.00       0.00      0.000
4:42am            165          0          0         85       74.8       78.4      29.79      20.66       78.4       83.3       73.5      29.90        124       0.00       0.00       0.00      0.000
4:43am            165          0          0         86       74.8       78.4      29.78      20.66       78.4       83.5       73.9      29.89        126       0.00       0.00       0.00      0.000
4:44am            165          0          0         86       74.8       78.4      29.79      20.66       78.4       83.5       73.9      29.90        125       0.00       0.00       0.00      0.000
4:45am            165          0          0         86       74.8       78.4      29.79      20.66       78.4       83.5       73.9      29.90        125       0.00       0.00       0.00      0.000
4:46am            165          0          0         86       74.8       78.4      29.79      20.66       78.4       83.5       73.9      29.90        124       0.00       0.00       0.00      0.000
4:47am            165          0          0         86       74.8       78.4      29.79      20.66       78.4       83.5       73.9      29.90        124       0.00       0.00       0.00      0.000
4:48am            165          0          0         86       74.8       78.4      29.79      20.66       78.4       83.5       73.9      29.90        122       0.00       0.00       0.00      0.000
4:49am            165          0          0         86       74.8       78.4      29.79      20.66       78.4       83.5       73.9      29.90        121       0.00       0.00       0.00      0.000
4:50am            165          0          0         86       74.8       78.4      29.79      20.66       78.4       83.5       73.9      29.90        122       0.00       0.00       0.00      0.000
4:51am            165          0          0         86       74.8       78.4      29.79      20.66       78.4       83.5       73.9      29.90        121       0.00       0.00       0.00      0.000
4:52am            165          0          0         86       74.8       78.4      29.79      20.66       78.4       83.5       73.9      29.90        122       0.00       0.00       0.00      0.000
4:53am            165          0          0         86       74.8       78.3      29.79      20.66       78.3       83.4       73.8      29.90        121       0.00       0.00       0.00      0.000
4:54am            165          0          0         86       74.8       78.3      29.79      20.66       78.3       83.4       73.8      29.90        122       0.00       0.00       0.00      0.000
4:55am            165          0          0         86       74.8       78.3      29.79      20.66       78.3       83.4       73.8      29.90        121       0.00       0.00       0.00      0.000
4:56am            165          0          0         86       74.8       78.3      29.79      20.66       78.3       83.4       73.8      29.90        119       0.00       0.00       0.00      0.000
4:57am            165          0          0         86       74.8       78.3      29.79      20.66       78.3       83.4       73.8      29.90        119       0.00       0.00       0.00      0.000
4:58am            165          0          0         86       74.8       78.3      29.79      20.66       78.3       83.4       73.8      29.90        118       0.00       0.00       0.00      0.000
4:59am            165          0          0         86       74.8       78.2      29.79      20.66       78.2       83.3       73.7      29.90        119       0.00       0.00       0.00      0.000
5:00am            165          0          0         86       74.8       78.2      29.79      20.66       78.2       83.3       73.7      29.90        119       0.00       0.00       0.00      0.000
5:01am            165          0          0         86       74.8       78.2      29.79      20.66       78.2       83.3       73.7      29.90        119       0.00       0.00       0.00      0.000
5:02am            165          0          0         86       74.8       78.2      29.79      20.66       78.2       83.3       73.7      29.90        121       0.00       0.00       0.00      0.000
5:03am            165          0          0         86       74.8       78.2      29.79      20.66       78.2       83.3       73.7      29.90        118       0.00       0.00       0.00      0.000
5:04am            165          0          0         86       74.8       78.2      29.79      20.66       78.2       83.3       73.7      29.90        117       0.00       0.00       0.00      0.000
5:05am            165          0          0         86       74.8       78.2      29.79      20.66       78.2       83.3       73.7      29.90        118       0.00       0.00       0.00      0.000
5:06am            165          0          0         86       74.8       78.2      29.79      20.66       78.2       83.3       73.7      29.90        118       0.00       0.00       0.00      0.000
5:07am            165          0          0         86       74.7       78.2      29.79      20.66       78.2       83.3       73.7      29.90        118       0.00       0.00       0.00      0.000
5:08am            165          0          0         86       74.8       78.2      29.79      20.66       78.2       83.3       73.7      29.90        118       0.00       0.00       0.00      0.000
5:09am            165          0          0         86       74.8       78.2      29.79      20.66       78.2       83.3       73.7      29.90        116       0.00       0.00       0.00      0.000
5:10am            165          0          0         86       74.7       78.1      29.79      20.66       78.1       83.2       73.6      29.90        116       0.00       0.00       0.00      0.000
5:11am            165          0          0         86       74.7       78.2      29.79      20.66       78.2       83.3       73.7      29.90        116       0.00       0.00       0.00      0.000
5:12am            165          0          0         86       74.7       78.1      29.79      20.66       78.1       83.2       73.6      29.90        116       0.00       0.00       0.00      0.000
5:13am            165          0          0         86       74.7       78.2      29.80      20.66       78.2       83.3       73.7      29.91        116       0.00       0.00       0.00      0.000
5:14am            165          0          0         86       74.7       78.1      29.79      20.66       78.1       83.2       73.6      29.90        116       0.00       0.00       0.00      0.000
5:15am            165          0          0         86       74.7       78.2      29.79      20.66       78.2       83.3       73.7      29.90        116       0.00       0.00       0.00      0.000
5:16am            165          0          0         86       74.7       78.2      29.80      20.66       78.2       83.3       73.7      29.91        115       0.00       0.00       0.00      0.000
5:17am            165          0          0         86       74.7       78.1      29.80      20.66       78.1       83.2       73.6      29.91        115       0.00       0.00       0.00      0.000
5:18am            165          0          0         86       74.7       78.2      29.80      20.66       78.2       83.3       73.7      29.91        113       0.00       0.00       0.00      0.000
5:19am            165          0          0         86       74.7       78.2      29.80      20.66       78.2       83.3       73.7      29.91        113       0.00       0.00       0.00      0.000
5:20am            165          0          0         86       74.6       78.1      29.80      20.66       78.1       83.2       73.6      29.91        114       0.00       0.00       0.00      0.000
5:21am            165          0          0         86       74.6       78.1      29.80      20.66       78.1       83.2       73.6      29.91        114       0.00       0.00       0.00      0.000
5:22am            165          0          0         86       74.6       78.2      29.80      20.66       78.2       83.3       73.7      29.91        113       0.00       0.00       0.00      0.000
5:23am            165          0          0         86       74.6       78.2      29.80      20.66       78.2       83.3       73.7      29.91        112       0.00       0.00       0.00      0.000
5:24am            165          0          0         86       74.6       78.2      29.80      20.66       78.2       83.3       73.7      29.91        112       0.00       0.00       0.00      0.000
5:25am            165          0          0         86       74.6       78.2      29.80      20.66       78.2       83.3       73.7      29.91        112       0.00       0.00       0.00      0.000
5:26am            165          0          0         86       74.6       78.2      29.80      20.66       78.2       83.3       73.7      29.91        111       0.00       0.00       0.00      0.000
5:27am            165          0          0         86       74.7       78.2      29.80      20.66       78.2       83.3       73.7      29.91        111       0.00       0.00       0.00      0.000
5:28am            165          0          0         86       74.7       78.2      29.80      20.66       78.2       83.3       73.7      29.91        111       0.00       0.00       0.00      0.000
5:29am            165          0          0         86       74.6       78.2      29.80      20.66       78.2       83.3       73.7      29.91        111       0.00       0.00       0.00      0.000
5:30am            165          0          0         86       74.6       78.2      29.80      20.66       78.2       83.3       73.7      29.91        110       0.00       0.00       0.00      0.000
5:31am            165          0          0         86       74.6       78.2      29.80      20.66       78.2       83.3       73.7      29.91        110       0.00       0.00       0.00      0.000
5:32am            165          0          0         86       74.6       78.2      29.80      20.66       78.2       83.3       73.7      29.91        108       0.00       0.00       0.00      0.000
5:33am            165          0          0         86       74.6       78.2      29.80      20.66       78.2       83.3       73.7      29.91        109       0.00       0.00       0.00      0.000
5:34am            165          0          0         86       74.6       78.2      29.80      20.66       78.2       83.3       73.7      29.91        107       0.00       0.00       0.00      0.000
5:35am            165          0          0         86       74.6       78.2      29.81      20.66       78.2       83.3       73.7      29.92        106       0.00       0.00       0.00      0.000
5:36am            165          0          0         86       74.6       78.2      29.81      20.66       78.2       83.3       73.7      29.92        105       0.00       0.00       0.00      0.000
5:37am            165          0          0         86       74.6       78.2      29.81      20.66       78.2       83.3       73.7      29.92        105       0.00       0.00       0.00      0.000
5:38am            165          0          0         86       74.6       78.2      29.81      20.66       78.2       83.3       73.7      29.92        104       0.00       0.00       0.00      0.000
5:39am            165          0          0         86       74.6       78.2      29.81      20.66       78.2       83.3       73.7      29.92        104       0.00       0.00       0.00      0.000
5:40am            165          0          0         86       74.6       78.2      29.81      20.66       78.2       83.3       73.7      29.92        105       0.00       0.00       0.00      0.000
5:41am            165          0          0         86       74.6       78.2      29.81      20.66       78.2       83.3       73.7      29.92        106       0.00       0.00       0.00      0.000
5:42am            165          0          0         86       74.6       78.2      29.81      20.66       78.2       83.3       73.7      29.92        106       0.00       0.00       0.00      0.000
5:43am            165          0          0         86       74.6       78.2      29.81      20.66       78.2       83.3       73.7      29.92        106       0.00       0.00       0.00      0.000
5:44am            165          0          0         86       74.6       78.2      29.81      20.66       78.2       83.3       73.7      29.92        105       0.00       0.00       0.00      0.000
5:45am            165          0          0         86       74.6       78.2      29.81      20.66       78.2       83.3       73.7      29.92        105       0.00       0.00       0.00      0.000
5:46am            165          0          0         86       74.6       78.2      29.81      20.66       78.2       83.3       73.7      29.92        105       0.00       0.00       0.00      0.000
5:47am            165          0          0         86       74.5       78.2      29.81      20.66       78.2       83.3       73.7      29.92        105       0.00       0.00       0.00      0.000
5:48am            243          0          0         86       74.5       78.2      29.81      20.66       78.2       83.3       73.7      29.92        104       0.00       0.00       0.00      0.000
5:49am            243          1          2         86       74.6       78.3      29.81      20.66       78.3       83.4       73.8      29.92        104       0.00       0.00       0.00      0.000
5:50am            241          1          2         86       74.5       78.3      29.81      20.66       78.3       83.4       73.8      29.92        103       0.00       0.00       0.00      0.000
5:51am            241          1          1         86       74.5       78.2      29.81      20.66       78.2       83.3       73.7      29.92        103       0.00       0.00       0.00      0.000
5:52am            241          0          1         86       74.5       78.2      29.81      20.66       78.2       83.3       73.7      29.92        102       0.00       0.00       0.00      0.000
5:53am            241          0          0         85       74.5       78.2      29.81      20.66       78.2       83.1       73.3      29.92        102       0.00       0.00       0.00      0.000
5:54am            241          0          0         85       74.5       78.2      29.81      20.66       78.2       83.1       73.3      29.92        102       0.00       0.00       0.00      0.000
5:55am            241          0          0         85       74.5       78.2      29.81      20.66       78.2       83.1       73.3      29.92        102       0.00       0.00       0.00      0.000
5:56am            241          0          0         85       74.5       78.2      29.81      20.66       78.2       83.1       73.3      29.92        102       0.00       0.00       0.00      0.000
5:57am            241          0          0         85       74.5       78.2      29.81      20.66       78.2       83.1       73.3      29.92        101       0.00       0.00       0.00      0.000
5:58am            241          0          0         85       74.5       78.3      29.81      20.66       78.3       83.2       73.4      29.92        102       0.00       0.00       0.00      0.000
5:59am            241          1          1         85       74.5       78.2      29.81      20.66       78.2       83.1       73.3      29.92        102       0.00       0.00       0.00      0.000
6:00am            158          1          3         85       74.5       78.3      29.81      20.66       78.3       83.2       73.4      29.92        102       0.00       0.00       0.00      0.000
6:01am            158          2          2         85       74.5       78.3      29.81      20.66       78.3       83.2       73.4      29.92        103       0.00       0.00       0.00      0.000
6:02am            158          1          2         85       74.5       78.3      29.81      20.66       78.3       83.2       73.4      29.92        102       0.00       0.00       0.00      0.000
6:03am            158          1          2         85       74.5       78.4      29.81      20.66       78.4       83.3       73.5      29.92        101       0.00       0.00       0.00      0.000
6:04am            158          0          1         85       74.5       78.4      29.81      20.66       78.4       83.3       73.5      29.92        103       0.00       0.00       0.00      0.000
6:05am            158          0          1         85       74.5       78.4      29.81      20.66       78.4       83.3       73.5      29.92        102       0.00       0.00       0.00      0.000
6:06am            158          1          1         85       74.5       78.4      29.81      20.66       78.4       83.3       73.5      29.92        102       0.00       0.00       0.00      0.000
6:07am            158          1          1         85       74.5       78.4      29.81      20.66       78.4       83.3       73.5      29.92        102       0.00       0.00       0.00      0.000
6:08am            158          1          1         85       74.5       78.4      29.81      20.66       78.4       83.3       73.5      29.92        102       0.00       0.00       0.00      0.000
6:09am            158          2          2         84       74.5       78.4      29.81      20.66       78.4       83.2       73.2      29.92        102       0.00       0.00       0.00      0.000
6:10am            158          1          2         84       74.6       78.5      29.81      20.66       78.5       83.3       73.3      29.92        102       0.00       0.00       0.00      0.000
6:11am            158          1          2         84       74.6       78.5      29.81      20.66       78.5       83.3       73.3      29.92        101       0.00       0.00       0.00      0.000
6:12am            191          1          2         84       74.6       78.5      29.81      20.66       78.5       83.3       73.3      29.92        101       0.00       0.00       0.00      0.000
6:13am            191          0          2         84       74.6       78.6      29.81      20.66       78.6       83.4       73.4      29.92        102       0.00       0.00       0.00      0.000
6:14am            191          1          1         84       74.5       78.6      29.81      20.66       78.6       83.4       73.4      29.92        100       0.00       0.00       0.00      0.000
6:15am            191          2          2         84       74.5       78.6      29.81      20.66       78.6       83.4       73.4      29.92        102       0.00       0.00       0.00      0.000
6:16am            191          1          2         84       74.5       78.7      29.81      20.66       78.7       83.5       73.5      29.92        102       0.00       0.00       0.00      0.000
6:17am            191          2          2         84       74.6       78.7      29.81      20.66       78.7       83.5       73.5      29.92        102       0.00       0.00       0.00      0.000
6:18am            191          1          2         84       74.6       78.7      29.81      20.66       78.7       83.5       73.5      29.92        102       0.00       0.00       0.00      0.000
6:19am            191          2          2         84       74.5       78.7      29.81      20.66       78.7       83.5       73.5      29.92        102       0.00       0.00       0.00      0.000
6:20am            191          2          2         84       74.5       78.8      29.81      20.66       78.8       83.6       73.6      29.92        103       0.00       0.00       0.00      0.000
6:21am            191          1          2         83       74.6       78.8      29.81      20.66       78.8       83.4       73.2      29.92        103       0.00       0.00       0.00      0.000
6:22am            191          0          2         83       74.6       78.8      29.81      20.66       78.8       83.4       73.2      29.92        103       0.00       0.00       0.00      0.000
6:23am            191          1          2         83       74.6       78.8      29.81      20.66       78.8       83.4       73.2      29.92        104       0.00       0.00       0.00      0.000
6:24am            191          1          1         83       74.5       78.9      29.81      20.66       78.9       83.5       73.3      29.92        104       0.00       0.00       0.00      0.000
6:25am            188          2          2         83       74.5       78.9      29.81      20.66       78.9       83.5       73.3      29.92        104       0.00       0.00       0.00      0.000
6:26am            188          2          2         83       74.6       78.9      29.81      20.66       78.9       83.5       73.3      29.92        104       0.00       0.00       0.00      0.000
6:27am            188          2          2         83       74.5       79.0      29.81      20.66       79.0       83.6       73.4      29.92        105       0.00       0.00       0.00      0.000
6:28am            188          0          2         83       74.5       79.0      29.81      20.66       79.0       83.6       73.4      29.92        106       0.00       0.00       0.00      0.000
6:29am            188          2          2         83       74.5       79.1      29.81      20.66       79.1       83.7       73.5      29.92        105       0.00       0.00       0.00      0.000
6:30am            188          1          2         83       74.5       79.1      29.81      20.66       79.1       83.7       73.5      29.92        106       0.00       0.00       0.00      0.000
6:31am            188          2          2         83       74.6       79.1      29.81      20.66       79.1       83.7       73.5      29.92        106       0.00       0.00       0.00      0.000
6:32am            188          2          2         83       74.6       79.1      29.81      20.66       79.1       83.7       73.5      29.92        105       0.00       0.00       0.00      0.000
6:34am            188          1          2         83       74.6       79.2      29.81      20.66       79.2       83.8       73.6      29.92        106       0.00       0.00       0.00      0.000
6:35am            188          2          2         83       74.6       79.2      29.81      20.66       79.2       83.8       73.6      29.92        106       0.00       0.00       0.00      0.000
6:36am            188          1          2         83       74.6       79.3      29.80      20.66       79.3       83.9       73.7      29.91        108       0.00       0.00       0.00      0.000
6:37am            188          1          2         83       74.6       79.3      29.81      20.66       79.3       83.9       73.7      29.92        106       0.00       0.00       0.00      0.000
6:38am            188          2          2         83       74.6       79.3      29.80      20.66       79.3       83.9       73.7      29.91        111       0.00       0.00       0.00      0.000
6:39am            188          1          2         83       74.5       79.4      29.80      20.66       79.4       84.0       73.8      29.91        111       0.00       0.00       0.00      0.000
6:40am            188          1          2         83       74.6       79.4      29.80      20.66       79.4       84.0       73.8      29.91        112       0.00       0.00       0.00      0.000
6:41am            188          1          2         82       74.6       79.4      29.80      20.66       79.4       83.9       73.4      29.91        111       0.00       0.00       0.00      0.000
6:42am            188          1          2         82       74.6       79.4      29.80      20.66       79.4       83.9       73.4      29.91        110       0.00       0.00       0.00      0.000
6:43am            188          0          2         82       74.6       79.4      29.80      20.66       79.4       83.9       73.4      29.91        111       0.00       0.00       0.00      0.000
6:44am            188          2          2         82       74.6       79.4      29.80      20.66       79.4       83.9       73.4      29.91        110       0.00       0.00       0.00      0.000
6:45am            188          0          2         82       74.6       79.4      29.80      20.66       79.4       83.9       73.4      29.91        110       0.00       0.00       0.00      0.000
6:46am            188          0          0         82       74.6       79.4      29.80      20.66       79.4       83.9       73.4      29.91        110       0.00       0.00       0.00      0.000
6:47am            188          0          0         81       74.6       79.5      29.80      20.66       79.5       83.9       73.2      29.91        110       0.00       0.00       0.00      0.000
6:48am            188          0          0         81       74.5       79.4      29.80      20.66       79.4       83.8       73.1      29.91        110       0.00       0.00       0.00      0.000
6:49am            188          0          0         81       74.5       79.5      29.80      20.66       79.5       83.9       73.2      29.91        110       0.00       0.00       0.00      0.000
6:50am            188          0          0         81       74.5       79.5      29.80      20.66       79.5       83.9       73.2      29.91        111       0.00       0.00       0.00      0.000
6:51am            188          0          0         81       74.6       79.5      29.80      20.66       79.5       83.9       73.2      29.91        110       0.00       0.00       0.00      0.000
6:52am            188          0          0         81       74.6       79.6      29.80      20.66       79.6       84.0       73.3      29.91        110       0.00       0.00       0.00      0.000
6:53am            188          0          0         81       74.5       79.6      29.80      20.66       79.6       84.0       73.3      29.91        110       0.00       0.00       0.00      0.000
6:54am            188          0          0         81       74.6       79.6      29.80      20.66       79.6       84.0       73.3      29.91        110       0.00       0.00       0.00      0.000
6:55am            188          0          0         81       74.6       79.7      29.80      20.66       79.7       84.1       73.4      29.91        110       0.00       0.00       0.00      0.000
6:56am            188          0          0         81       74.5       79.7      29.80      20.66       79.7       84.1       73.4      29.91        110       0.00       0.00       0.00      0.000
6:57am            188          0          0         81       74.5       79.7      29.80      20.66       79.7       84.1       73.4      29.91        108       0.00       0.00       0.00      0.000
6:58am            188          0          0         81       74.6       79.8      29.80      20.66       79.8       84.2       73.5      29.91        109       0.00       0.00       0.00      0.000
6:59am            188          0          0         81       74.6       79.8      29.80      20.66       79.8       84.2       73.5      29.91        108       0.00       0.00       0.00      0.000
7:00am            188          0          0         81       74.6       79.8      29.80      20.66       79.8       84.2       73.5      29.91        107       0.00       0.00       0.00      0.000
7:01am            188          0          0         81       74.5       79.9      29.80      20.66       79.9       84.3       73.6      29.91        108       0.00       0.00       0.00      0.000
7:02am            188          0          0         81       74.5       79.9      29.80      20.66       79.9       84.3       73.6      29.91        108       0.00       0.00       0.00      0.000
7:03am            188          0          0         81       74.5       80.0      29.80      20.66       80.0       84.4       73.6      29.91        109       0.00       0.00       0.00      0.000
7:04am            188          0          0         81       74.5       80.0      29.80      20.66       80.0       84.4       73.6      29.91        107       0.00       0.00       0.00      0.000
7:05am            188          0          0         81       74.5       80.0      29.80      20.66       80.0       84.4       73.6      29.91        108       0.00       0.00       0.00      0.000
7:06am            188          0          0         81       74.5       80.1      29.80      20.66       80.1       84.6       73.7      29.91        108       0.00       0.00       0.00      0.000
7:07am            188          0          0         81       74.5       80.1      29.80      20.66       80.1       84.6       73.7      29.91        109       0.00       0.00       0.00      0.000
7:08am            188          0          0         81       74.5       80.1      29.80      20.66       80.1       84.6       73.7      29.91        109       0.00       0.00       0.00      0.000
7:09am            188          0          0         80       74.6       80.1      29.80      20.66       80.1       84.4       73.4      29.91        109       0.00       0.00       0.00      0.000
7:10am            188          0          0         80       74.5       80.2      29.81      20.66       80.2       84.7       73.5      29.92        106       0.00       0.00       0.00      0.000
7:11am            188          0          0         80       74.5       80.2      29.80      20.66       80.2       84.7       73.5      29.91        107       0.00       0.00       0.00      0.000
7:12am            188          0          0         80       74.6       80.3      29.80      20.66       80.3       84.9       73.6      29.91        107       0.00       0.00       0.00      0.000
7:13am            188          0          0         80       74.6       80.3      29.80      20.66       80.3       84.9       73.6      29.91        107       0.00       0.00       0.00      0.000
7:14am            188          0          0         80       74.5       80.4      29.80      20.66       80.4       85.1       73.7      29.91        108       0.00       0.00       0.00      0.000
7:15am            188          0          0         80       74.6       80.4      29.80      20.66       80.4       85.1       73.7      29.91        109       0.00       0.00       0.00      0.000
7:16am            188          0          0         80       74.6       80.5      29.80      20.66       80.5       85.3       73.8      29.91        109       0.00       0.00       0.00      0.000
7:17am            188          0          0         80       74.6       80.5      29.80      20.66       80.5       85.3       73.8      29.91        108       0.00       0.00       0.00      0.000
7:18am            188          0          0         80       74.6       80.6      29.80      20.66       80.6       85.5       73.9      29.91        108       0.00       0.00       0.00      0.000
7:19am            188          0          0         80       74.6       80.6      29.80      20.66       80.6       85.5       73.9      29.91        108       0.00       0.00       0.00      0.000
7:20am            188          0          0         80       74.6       80.6      29.81      20.66       80.6       85.5       73.9      29.92        106       0.00       0.00       0.00      0.000
7:21am            188          0          0         80       74.6       80.6      29.81      20.66       80.6       85.5       73.9      29.92        105       0.00       0.00       0.00      0.000
7:22am            188          0          0         79       74.6       80.6      29.81      20.66       80.6       85.4       73.5      29.92        105       0.00       0.00       0.00      0.000
7:23am            188          0          0         79       74.6       80.7      29.81      20.66       80.7       85.6       73.6      29.92        103       0.00       0.00       0.00      0.000
7:24am            144          2          2         79       74.6       80.7      29.81      20.66       80.7       85.6       73.6      29.92        105       0.00       0.00       0.00      0.000
7:25am            127          1          3         79       74.6       80.8      29.81      20.66       80.8       85.8       73.7      29.92        105       0.00       0.00       0.00      0.000
7:26am            127          1          1         78       74.6       80.8      29.81      20.66       80.8       85.6       73.3      29.92        106       0.00       0.00       0.00      0.000
7:27am            127          0          1         78       74.6       80.9      29.80      20.66       80.9       85.8       73.4      29.91        107       0.00       0.00       0.00      0.000
7:28am            127          0          0         78       74.6       80.9      29.80      20.66       80.9       85.8       73.4      29.91        107       0.00       0.00       0.00      0.000
7:29am            127          0          0         78       74.6       80.9      29.81      20.66       80.9       85.8       73.4      29.92        106       0.00       0.00       0.00      0.000
7:30am            127          0          0         78       74.6       81.0      29.81      20.66       81.0       86.0       73.5      29.92        106       0.00       0.00       0.00      0.000
7:31am            127          0          0         78       74.6       81.0      29.80      20.66       81.0       86.0       73.5      29.91        107       0.00       0.00       0.00      0.000
7:32am            127          1          2         78       74.6       81.1      29.80      20.66       81.1       86.3       73.6      29.91        107       0.00       0.00       0.00      0.000
7:33am            127          2          2         78       74.6       81.3      29.81      20.66       81.3       86.7       73.8      29.92        106       0.00       0.00       0.00      0.000
7:34am            127          1          3         77       74.6       81.4      29.80      20.66       81.4       86.7       73.5      29.91        107       0.00       0.00       0.00      0.000
7:35am            127          1          2         77       74.6       81.6      29.80      20.66       81.6       87.2       73.7      29.91        107       0.00       0.00       0.00      0.000
7:36am            127          1          2         77       74.6       81.7      29.80      20.66       81.7       87.4       73.8      29.91        108       0.00       0.00       0.00      0.000
7:37am            127          0          1         77       74.6       81.8      29.80      20.66       81.8       87.6       73.9      29.91        108       0.00       0.00       0.00      0.000
7:38am            127          0          1         77       74.6       81.9      29.80      20.66       81.9       87.8       74.0      29.91        107       0.00       0.00       0.00      0.000
7:39am            127          0          0         76       74.6       82.0      29.80      20.66       82.0       87.8       73.7      29.91        108       0.00       0.00       0.00      0.000
7:40am            127          0          1         77       74.6       82.0      29.80      20.66       82.0       88.0       74.1      29.91        108       0.00       0.00       0.00      0.000
7:41am            127          1          2         77       74.6       82.1      29.80      20.66       82.1       88.3       74.2      29.91        109       0.00       0.00       0.00      0.000
7:42am            127          1          2         76       74.7       82.2      29.80      20.66       82.2       88.2       73.9      29.91        108       0.00       0.00       0.00      0.000
7:43am            127          1          2         76       74.7       82.3      29.80      20.66       82.3       88.5       74.0      29.91        110       0.00       0.00       0.00      0.000
7:44am            127          1          2         76       74.7       82.4      29.80      20.66       82.4       88.7       74.1      29.91        110       0.00       0.00       0.00      0.000
7:45am            127          0          1         76       74.7       82.5      29.80      20.66       82.5       88.9       74.2      29.91        112       0.00       0.00       0.00      0.000
7:46am            127          0          1         76       74.7       82.6      29.80      20.66       82.6       89.2       74.3      29.91        109       0.00       0.00       0.00      0.000
7:47am            127          0          0         76       74.6       82.7      29.80      20.66       82.7       89.4       74.4      29.91        112       0.00       0.00       0.00      0.000
7:48am            127          1          1         76       74.6       82.7      29.80      20.66       82.7       89.4       74.4      29.91        113       0.00       0.00       0.00      0.000
7:49am            127          0          1         76       74.6       82.7      29.80      20.66       82.7       89.4       74.4      29.91        112       0.00       0.00       0.00      0.000
7:50am            127          2          2         76       74.6       82.8      29.80      20.66       82.8       89.6       74.5      29.91        112       0.00       0.00       0.00      0.000
7:51am            127          2          2         75       74.7       82.9      29.80      20.66       82.9       89.6       74.2      29.91        113       0.00       0.00       0.00      0.000
7:52am            127          1          2         76       74.7       83.0      29.80      20.66       83.0       90.1       74.7      29.91        113       0.00       0.00       0.00      0.000
7:53am            127          0          2         76       74.7       83.0      29.80      20.66       83.0       90.1       74.7      29.91        113       0.00       0.00       0.00      0.000
7:54am            127          1          1         75       74.7       83.1      29.80      20.66       83.1       90.0       74.4      29.91        114       0.00       0.00       0.00      0.000
7:55am            127          1          2         75       74.7       83.2      29.80      20.66       83.2       90.3       74.5      29.91        113       0.00       0.00       0.00      0.000
7:56am            127          1          2         75       74.7       83.3      29.80      20.66       83.3       90.5       74.6      29.91        114       0.00       0.00       0.00      0.000
7:57am            127          0          2         75       74.7       83.4      29.80      20.66       83.4       90.7       74.6      29.91        116       0.00       0.00       0.00      0.000
7:58am            127          0          0         75       74.7       83.4      29.80      20.66       83.4       90.7       74.6      29.91        115       0.00       0.00       0.00      0.000
7:59am            127          0          0         75       74.7       83.5      29.80      20.66       83.5       91.0       74.7      29.91        116       0.00       0.00       0.00      0.000
8:00am            127          0          0         75       74.7       83.5      29.80      20.66       83.5       91.0       74.7      29.91        116       0.00       0.00       0.00      0.000
8:01am            127          1          2         74       74.7       83.5      29.80      20.66       83.5       90.6       74.3      29.91        116       0.00       0.00       0.00      0.000
8:02am            127          0          2         74       74.7       83.6      29.80      20.66       83.6       90.9       74.4      29.91        116       0.00       0.00       0.00      0.000
8:03am            127          0          1         74       74.7       83.7      29.80      20.66       83.7       91.1       74.5      29.91        114       0.00       0.00       0.00      0.000
8:04am            127          1          1         74       74.7       83.8      29.80      20.66       83.8       91.3       74.6      29.91        115       0.00       0.00       0.00      0.000
8:05am            127          2          2         74       74.7       83.9      29.79      20.66       83.9       91.6       74.7      29.90        116       0.00       0.00       0.00      0.000
8:06am            192          4          5         73       74.7       84.0      29.79      20.66       84.0       91.5       74.4      29.90        116       0.00       0.00       0.00      0.000
8:07am            192          2          4         72       74.7       84.1      29.79      20.66       84.1       91.4       74.1      29.90        117       0.00       0.00       0.00      0.000
8:08am            192          3          3         72       74.7       84.1      29.79      20.66       84.1       91.4       74.1      29.90        116       0.00       0.00       0.00      0.000
8:09am            192          1          3         72       74.7       84.2      29.79      20.66       84.2       91.6       74.2      29.90        116       0.00       0.00       0.00      0.000
8:10am            207          2          3         72       74.8       84.3      29.79      20.66       84.3       91.8       74.3      29.90        116       0.00       0.00       0.00      0.000
8:11am            207          3          4         72       74.8       84.5      29.79      20.66       84.5       92.3       74.5      29.90        116       0.00       0.00       0.00      0.000
8:12am            207          3          3         71       74.8       84.6      29.80      20.66       84.6       92.2       74.2      29.91        116       0.00       0.00       0.00      0.000
8:13am            207          1          3         71       74.8       84.7      29.79      20.66       84.7       92.4       74.3      29.90        116       0.00       0.00       0.00      0.000
8:14am            207          1          2         71       74.8       84.8      29.79      20.66       84.8       92.6       74.4      29.90        116       0.00       0.00       0.00      0.000
8:15am            207          0          1         71       74.8       84.9      29.79      20.66       84.9       92.8       74.5      29.90        117       0.00       0.00       0.00      0.000
8:16am            207          1          3         70       74.8       85.0      29.79      20.66       85.0       92.7       74.1      29.90        118       0.00       0.00       0.00      0.000
8:17am            207          1          1         70       74.8       85.1      29.79      20.66       85.1       92.9       74.2      29.90        118       0.00       0.00       0.00      0.000
8:18am            207          3          3         70       74.8       85.2      29.79      20.66       85.2       93.2       74.3      29.90        117       0.00       0.00       0.00      0.000
8:19am            207          3          3         70       74.8       85.3      29.79      20.66       85.3       93.4       74.4      29.90        117       0.00       0.00       0.00      0.000
8:20am            212          3          4         70       74.8       85.4      29.79      20.66       85.4       93.6       74.5      29.90        116       0.00       0.00       0.00      0.000
8:21am            217          3          3         70       74.8       85.6      29.79      20.66       85.6       94.1       74.7      29.90        116       0.00       0.00       0.00      0.000
8:22am            234          2          4         70       74.8       85.7      29.80      20.66       85.7       94.3       74.8      29.91        115       0.00       0.00       0.00      0.000
8:23am            233          2          3         69       74.8       85.8      29.80      20.66       85.8       94.2       74.5      29.91        114       0.00       0.00       0.00      0.000
8:24am            230          3          3         69       74.8       86.0      29.80      20.66       86.0       94.6       74.7      29.91        112       0.00       0.00       0.00      0.000
8:25am            234          3          4         70       74.9       86.1      29.80      20.66       86.1       95.3       75.2      29.91        113       0.00       0.00       0.00      0.000
8:26am            243          1          4         69       74.9       86.3      29.80      20.66       86.3       95.4       74.9      29.91        114       0.00       0.00       0.00      0.000
8:27am            243          2          3         69       74.9       86.4      29.80      20.66       86.4       95.6       75.0      29.91        113       0.00       0.00       0.00      0.000
8:28am            243          1          2         69       74.9       86.5      29.80      20.66       86.5       95.8       75.1      29.91        113       0.00       0.00       0.00      0.000
8:29am            257          2          5         68       74.9       86.6      29.80      20.66       86.6       95.6       74.8      29.91        111       0.00       0.00       0.00      0.000
8:30am            264          2          3         68       74.9       86.7      29.80      20.66       86.7       95.9       74.9      29.91        113       0.00       0.00       0.00      0.000
8:31am            226          3          3         68       74.9       86.8      29.80      20.66       86.8       96.1       75.0      29.91        113       0.00       0.00       0.00      0.000
8:32am            255          3          4         67       74.9       86.8      29.80      20.66       86.8       95.7       74.5      29.91        112       0.00       0.00       0.00      0.000
8:33am            255          2          3         67       74.9       86.9      29.80      20.66       86.9       95.9       74.6      29.91        113       0.00       0.00       0.00      0.000
8:34am            260          3          3         67       74.9       87.0      29.80      20.66       87.0       96.1       74.7      29.91        112       0.00       0.00       0.00      0.000
8:35am            260          3          3         67       74.9       87.1      29.80      20.66       87.1       96.4       74.8      29.91        110       0.00       0.00       0.00      0.000
8:36am            261          2          4         67       74.9       87.1      29.80      20.66       87.1       96.4       74.8      29.91        111       0.00       0.00       0.00      0.000
8:37am            260          1          4         67       74.9       87.2      29.80      20.66       87.2       96.6       74.9      29.91        111       0.00       0.00       0.00      0.000
8:38am            260          1          2         66       74.9       87.3      29.80      20.66       87.3       96.4       74.6      29.91        113       0.00       0.00       0.00      0.000
8:39am            260          1          2         66       74.9       87.3      29.80      20.66       87.3       96.4       74.6      29.91        113       0.00       0.00       0.00      0.000
8:40am            260          2          3         66       74.9       87.4      29.80      20.66       87.4       96.6       74.7      29.91        113       0.00       0.00       0.00      0.000
8:41am            260          2          2         66       74.9       87.5      29.80      20.66       87.5       96.9       74.7      29.91        113       0.00       0.00       0.00      0.000
8:42am            260          2          2         67       74.9       87.6      29.80      20.66       87.6       97.6       75.3      29.91        113       0.00       0.00       0.00      0.000
8:43am            244          1          2         66       74.9       87.7      29.80      20.66       87.7       97.3       74.9      29.91        113       0.00       0.00       0.00      0.000
8:44am            244          2          2         66       74.9       87.8      29.80      20.66       87.8       97.6       75.0      29.91        113       0.00       0.00       0.00      0.000
8:45am            244          2          2         66       74.9       87.9      29.80      20.66       87.9       97.8       75.1      29.91        114       0.00       0.00       0.00      0.000
8:46am            258          3          4         65       74.9       87.9      29.80      20.66       87.9       97.3       74.7      29.91        113       0.00       0.00       0.00      0.000
8:47am            290          2          4         65       74.9       88.0      29.80      20.66       88.0       97.6       74.8      29.91        113       0.00       0.00       0.00      0.000
8:48am            290          2          2         65       74.9       88.1      29.80      20.66       88.1       97.8       74.9      29.91        114       0.00       0.00       0.00      0.000
8:49am            292          2          2         65       74.9       88.2      29.80      20.66       88.2       98.0       75.0      29.91        113       0.00       0.00       0.00      0.000
8:50am            269          2          2         65       74.9       88.2      29.80      20.66       88.2       98.0       75.0      29.91        115       0.00       0.00       0.00      0.000
8:51am            178          3          4         65       75.0       88.4      29.80      20.66       88.4       98.5       75.1      29.91        115       0.00       0.00       0.00      0.000
8:52am            183          2          3         65       74.9       88.5      29.80      20.66       88.5       98.8       75.2      29.91        114       0.00       0.00       0.00      0.000
8:53am            240          3          4         65       74.9       88.6      29.80      20.66       88.6       99.0       75.3      29.91        113       0.00       0.00       0.00      0.000
8:54am            252          3          4         65       75.0       88.7      29.80      20.66       88.7       99.3       75.4      29.91        111       0.00       0.00       0.00      0.000
8:55am            318          1          3         64       75.0       88.8      29.80      20.66       88.8       99.0       75.1      29.91        112       0.00       0.00       0.00      0.000
8:57am            266          2          4         64       75.0       88.9      29.80      20.66       88.9       99.2       75.2      29.91        111       0.00       0.00       0.00      0.000
8:58am            266          2          2         64       75.0       89.0      29.80      20.66       89.0       99.5       75.2      29.91        110       0.00       0.00       0.00      0.000
8:59am            261          4          4         64       75.0       89.1      29.80      20.66       89.1       99.7       75.3      29.91        110       0.00       0.00       0.00      0.000
9:00am            261          0          5         64       74.9       89.2      29.80      20.66       89.2      100.0       75.4      29.91        110       0.00       0.00       0.00      0.000
9:01am            323          2          3         64       75.0       89.2      29.80      20.66       89.2      100.0       75.4      29.91        110       0.00       0.00       0.00      0.000
9:02am            264          3          3         64       75.0       89.3      29.80      20.66       89.3      100.2       75.5      29.91        108       0.00       0.00       0.00      0.000
9:03am            277          3          4         64       74.9       89.3      29.80      20.66       89.3      100.2       75.5      29.91        108       0.00       0.00       0.00      0.000
9:04am            266          3          4         63       75.0       89.4      29.80      20.66       89.4       99.9       75.2      29.91        108       0.00       0.00       0.00      0.000
9:05am            266          1          3         63       75.0       89.5      29.80      20.66       89.5      100.2       75.2      29.91        108       0.00       0.00       0.00      0.000
9:06am            333          3          3         63       75.0       89.6      29.80      20.66       89.6      100.4       75.3      29.91        107       0.00       0.00       0.00      0.000
9:07am            333          1          3         63       75.0       89.6      29.80      20.66       89.6      100.4       75.3      29.91        107       0.00       0.00       0.00      0.000
9:08am            333          1          2         63       75.0       89.7      29.80      20.66       89.7      100.7       75.4      29.91        108       0.00       0.00       0.00      0.000
9:09am            278          4          4         63       75.0       89.7      29.80      20.66       89.7      100.7       75.4      29.91        108       0.00       0.00       0.00      0.000
9:10am            276          5          5         63       75.0       89.7      29.80      20.66       89.7      100.7       75.4      29.91        107       0.00       0.00       0.00      0.000
9:11am            264          2          6         63       75.0       89.8      29.81      20.66       89.8      100.9       75.5      29.92        106       0.00       0.00       0.00      0.000
9:12am            269          2          3         63       75.0       89.9      29.81      20.66       89.9      101.2       75.6      29.92        104       0.00       0.00       0.00      0.000
9:13am            245          4          4         63       75.0       89.9      29.81      20.66       89.9      101.2       75.6      29.92        105       0.00       0.00       0.00      0.000
9:14am            266          3          7         63       75.0       89.9      29.81      20.66       89.9      101.2       75.6      29.92        106       0.00       0.00       0.00      0.000
9:15am            276          3          5         62       75.0       90.0      29.81      20.66       90.0      100.8       75.2      29.92        106       0.00       0.00       0.00      0.000
9:16am            290          5          6         62       75.0       90.1      29.81      20.66       90.1      101.1       75.3      29.92        106       0.00       0.00       0.00      0.000
9:17am            248          5          7         62       75.0       90.1      29.81      20.66       90.1      101.1       75.3      29.92        106       0.00       0.00       0.00      0.000
9:18am            305          5          6         62       75.0       90.2      29.80      20.66       90.2      101.3       75.4      29.91        107       0.00       0.00       0.00      0.000
9:19am            274          4          5         62       75.0       90.2      29.80      20.66       90.2      101.3       75.4      29.91        107       0.00       0.00       0.00      0.000
9:20am            323          4          6         62       75.0       90.2      29.81      20.66       90.2      101.3       75.4      29.92        106       0.00       0.00       0.00      0.000
9:21am            320          3          5         62       75.0       90.3      29.81      20.66       90.3      101.6       75.5      29.92        105       0.00       0.00       0.00      0.000
9:22am            290          3          5         62       75.0       90.3      29.81      20.66       90.3      101.6       75.5      29.92        103       0.00       0.00       0.00      0.000
9:23am            243          7          7         62       75.0       90.3      29.81      20.66       90.3      101.6       75.5      29.92        106       0.00       0.00       0.00      0.000
9:24am            252          3          7         62       75.0       90.3      29.81      20.66       90.3      101.6       75.5      29.92        105       0.00       0.00       0.00      0.000
9:25am            272          4          5         61       75.0       90.4      29.81      20.66       90.4      101.2       75.1      29.92        105       0.00       0.00       0.00      0.000
9:26am            257          2          4         62       75.0       90.4      29.81      20.66       90.4      101.8       75.6      29.92        105       0.00       0.00       0.00      0.000
9:27am            320          3          5         62       75.0       90.4      29.81      20.66       90.4      101.8       75.6      29.92        104       0.00       0.00       0.00      0.000
9:28am            296          2          3         63       75.0       90.5      29.81      20.66       90.5      102.7       76.2      29.92        104       0.00       0.00       0.00      0.000
9:29am            266          1          4         63       75.0       90.6      29.81      20.66       90.6      103.0       76.3      29.92        104       0.00       0.00       0.00      0.000
9:30am            251          5          5         63       75.1       90.6      29.81      20.66       90.6      103.0       76.3      29.92        104       0.00       0.00       0.00      0.000
9:31am            285          5          7         62       75.1       90.7      29.81      20.66       90.7      102.6       75.9      29.92        103       0.00       0.00       0.00      0.000
9:32am            266         11         11         62       75.1       90.7      29.81      20.66       90.7      102.6       75.9      29.92        103       0.00       0.00       0.00      0.000
9:33am            273          5         11         62       75.1       90.8      29.81      20.66       90.8      102.9       76.0      29.92        104       0.00       0.00       0.00      0.000
9:34am            257          5          5         62       75.1       90.8      29.81      20.66       90.8      102.9       76.0      29.92        103       0.00       0.00       0.00      0.000
9:35am            238          4          6         61       75.1       90.8      29.81      20.66       90.8      102.2       75.5      29.92        106       0.00       0.00       0.00      0.000
9:36am            270          2          4         62       75.1       90.8      29.81      20.66       90.8      102.9       76.0      29.92        104       0.00       0.00       0.00      0.000
9:37am            236          3          3         62       75.1       90.8      29.81      20.66       90.8      102.9       76.0      29.92        104       0.00       0.00       0.00      0.000
9:38am            274          2          5         62       75.1       90.9      29.81      20.66       90.9      103.1       76.1      29.92        104       0.00       0.00       0.00      0.000
9:39am            220          5          5         62       75.1       90.9      29.81      20.66       90.9      103.1       76.1      29.92        103       0.00       0.00       0.00      0.000
9:40am            266          3          5         62       75.1       90.9      29.81      20.66       90.9      103.1       76.1      29.92        103       0.00       0.00       0.00      0.000
9:41am            296          3          3         61       75.1       90.9      29.81      20.66       90.9      102.5       75.6      29.92        103       0.00       0.00       0.00      0.000
9:42am            330          4          4         62       75.1       91.0      29.81      20.66       91.0      103.4       76.2      29.92        104       0.00       0.00       0.00      0.000
9:43am            316          2          5         62       75.1       91.0      29.81      20.66       91.0      103.4       76.2      29.92        104       0.00       0.00       0.00      0.000
9:44am            333          2          3         62       75.1       91.1      29.81      20.66       91.1      103.7       76.3      29.92        104       0.00       0.00       0.00      0.000
9:45am            281          4          6         62       75.1       91.1      29.81      20.66       91.1      103.7       76.3      29.92        105       0.00       0.00       0.00      0.000
9:46am            345          3          6         62       75.1       91.3      29.81      20.66       91.3      104.2       76.5      29.92        103       0.00       0.00       0.00      0.000
9:47am            329          3          4         63       75.1       91.3      29.80      20.66       91.3      104.9       76.9      29.91        107       0.00       0.00       0.00      0.000
9:48am            329          3          5         61       75.1       91.3      29.81      20.66       91.3      103.5       76.0      29.92        106       0.00       0.00       0.00      0.000
9:49am            306          2          4         61       75.1       91.4      29.80      20.66       91.4      103.8       76.1      29.91        108       0.00       0.00       0.00      0.000
9:50am            251          3          3         61       75.1       91.4      29.81      20.66       91.4      103.8       76.1      29.92        106       0.00       0.00       0.00      0.000
9:51am            264          3          4         62       75.1       91.5      29.81      20.66       91.5      104.7       76.7      29.92        105       0.00       0.00       0.00      0.000
9:52am            270          3          5         61       75.1       91.5      29.81      20.66       91.5      104.0       76.2      29.92        105       0.00       0.00       0.00      0.000
9:53am            305          1          4         62       75.1       91.6      29.81      20.66       91.6      105.0       76.7      29.92        105       0.00       0.00       0.00      0.000
9:54am            257          4          6         62       75.1       91.7      29.81      20.66       91.7      105.3       76.8      29.92        104       0.00       0.00       0.00      0.000
9:55am            276          2          4         61       75.1       91.7      29.81      20.66       91.7      104.6       76.3      29.92        104       0.00       0.00       0.00      0.000
9:56am            358          2          3         61       75.1       91.8      29.81      20.66       91.8      104.8       76.4      29.92        104       0.00       0.00       0.00      0.000
9:57am            321          2          3         61       75.1       91.9      29.81      20.66       91.9      105.1       76.5      29.92        104       0.00       0.00       0.00      0.000
9:58am            300          4          5         61       75.1       91.9      29.81      20.66       91.9      105.1       76.5      29.92        105       0.00       0.00       0.00      0.000
9:59am            255          5          5         60       75.1       91.9      29.81      20.66       91.9      104.4       76.0      29.92        105       0.00       0.00       0.00      0.000
10:00am           279          4          9         60       75.1       91.9      29.81      20.66       91.9      104.4       76.0      29.92        105       0.00       0.00       0.00      0.000
10:01am           229          3          4         60       75.1       92.0      29.81      20.66       92.0      104.7       76.1      29.92        105       0.00       0.00       0.00      0.000
10:02am           239          4          6         60       75.1       92.0      29.81      20.66       92.0      104.7       76.1      29.92        104       0.00       0.00       0.00      0.000
10:03am           326          2          6         60       75.1       92.0      29.81      20.66       92.0      104.7       76.1      29.92        105       0.00       0.00       0.00      0.000
10:04am           323          2          4         61       75.1       92.0      29.81      20.66       92.0      105.4       76.6      29.92        105       0.00       0.00       0.00      0.000
10:05am           276          3          3         60       75.1       92.0      29.81      20.66       92.0      104.7       76.1      29.92        106       0.00       0.00       0.00      0.000
10:06am           252          3          4         61       75.1       92.1      29.81      20.66       92.1      105.6       76.7      29.92        104       0.00       0.00       0.00      0.000
10:07am           257          4          5         61       75.1       92.1      29.81      20.66       92.1      105.6       76.7      29.92        105       0.00       0.00       0.00      0.000
10:08am           296          1          5         61       75.1       92.2      29.81      20.66       92.2      105.9       76.8      29.92        105       0.00       0.00       0.00      0.000
10:09am             1          4          4         62       75.1       92.3      29.81      20.66       92.3      106.9       77.4      29.92        104       0.00       0.00       0.00      0.000
10:10am           359          1          4         61       75.1       92.4      29.81      20.66       92.4      106.5       77.0      29.92        104       0.00       0.00       0.00      0.000
10:11am            18          5          5         61       75.1       92.5      29.81      20.66       92.5      106.7       77.1      29.92        104       0.00       0.00       0.00      0.000
10:12am           307          3          6         60       75.1       92.6      29.81      20.66       92.6      106.3       76.7      29.92        105       0.00       0.00       0.00      0.000
10:13am           270          2          5         60       75.1       92.6      29.81      20.66       92.6      106.3       76.7      29.92        104       0.00       0.00       0.00      0.000
10:14am           295          6          6         60       75.1       92.7      29.81      20.66       92.7      106.5       76.8      29.92        104       0.00       0.00       0.00      0.000
10:15am             1          1          6         59       75.1       92.7      29.81      20.66       92.7      105.8       76.3      29.92        104       0.00       0.00       0.00      0.000
10:16am           347          2          4         60       75.2       92.8      29.81      20.66       92.8      106.8       76.9      29.92        104       0.00       0.00       0.00      0.000
10:17am           293          2          4         59       75.2       92.8      29.81      20.66       92.8      106.1       76.4      29.92        104       0.00       0.00       0.00      0.000
10:18am           252          3          4         59       75.2       92.9      29.81      20.66       92.9      106.4       76.5      29.92        104       0.00       0.00       0.00      0.000
10:19am           282          2          3         59       75.2       92.9      29.81      20.66       92.9      106.4       76.5      29.92        105       0.00       0.00       0.00      0.000
10:20am           211          4          6         60       75.2       93.0      29.81      20.66       93.0      107.4       77.1      29.92        104       0.00       0.00       0.00      0.000
10:21am           259          3          9         59       75.2       93.1      29.81      20.66       93.1      106.9       76.7      29.92        103       0.00       0.00       0.00      0.000
10:22am           359          6          6         59       75.2       93.2      29.81      20.66       93.2      107.2       76.7      29.92        103       0.00       0.00       0.00      0.000
10:23am           309          3          6         60       75.2       93.2      29.81      20.66       93.2      107.9       77.3      29.92        103       0.00       0.00       0.00      0.000
10:24am           345          2          3         59       75.2       93.3      29.81      20.66       93.3      107.4       76.8      29.92        103       0.00       0.00       0.00      0.000
10:25am           281          1          3         59       75.2       93.3      29.81      20.66       93.3      107.4       76.8      29.92        102       0.00       0.00       0.00      0.000
10:26am           280          7          9         58       75.2       93.3      29.81      20.66       93.3      106.7       76.3      29.92        101       0.00       0.00       0.00      0.000
10:27am           264          3          8         58       75.2       93.3      29.81      20.66       93.3      106.7       76.3      29.92        101       0.00       0.00       0.00      0.000
10:28am           275          5          6         59       75.2       93.4      29.81      20.66       93.4      107.7       76.9      29.92         99       0.00       0.00       0.00      0.000
10:29am           264          5         12         59       75.2       93.5      29.81      20.66       93.5      108.0       77.0      29.92         99       0.00       0.00       0.00      0.000
10:30am           304          4          8         58       75.2       93.5      29.81      20.66       93.5      107.2       76.5      29.92        100       0.00       0.00       0.00      0.000
10:31am           269          4          5         58       75.2       93.5      29.81      20.66       93.5      107.2       76.5      29.92         99       0.00       0.00       0.00      0.000
10:32am           275          6          6         59       75.2       93.6      29.81      20.66       93.6      108.3       77.1      29.92         99       0.00       0.00       0.00      0.000
10:33am           259          3          6         59       75.2       93.6      29.81      20.66       93.6      108.3       77.1      29.92         99       0.00       0.00       0.00      0.000
10:34am            12          4          5         59       75.2       93.7      29.81      20.66       93.7      108.5       77.2      29.92        100       0.00       0.00       0.00      0.000
10:35am             1          1          4         58       75.2       93.8      29.81      20.66       93.8      108.0       76.8      29.92        102       0.00       0.00       0.00      0.000
10:36am           230          2          3         59       75.2       93.8      29.81      20.66       93.8      108.8       77.3      29.92        102       0.00       0.00       0.00      0.000
10:37am            27          5          5         58       75.2       93.8      29.81      20.66       93.8      108.0       76.8      29.92        103       0.00       0.00       0.00      0.000

Updated Automatically by Ambient Weather's Virtual Weather Station  V15.00
All rights reserved. Unauthorized duplication or distribution is prohibited
Never base important decisions on this or any weather information obtained from the Internet